User: anonymous   Login
Location: Muenchen
(48.1800°N, 11.5800°E)
Time: 02:51:15
(UTC+02:00)
Language:

Tiros 1 - Orbit

View from above orbital plane
View from above orbital plane
View from above satellite
View from above satellite

Ground track
Ground track

The orbit data is extracted from the following two-line orbital elements,

1    29U 60002B   17203.58113757 -.00000114 +00000-0 +14113-4 0  9990
2    29 048.3794 274.5799 0023867 012.9961 347.1561 14.74176513062010
Epoch (UTC): 22 July 2017 13:56:50
Eccentricity: 0.0023867
inclination: 48.3794°
perigee height: 631 km
apogee height: 664 km
right ascension of ascending node: 274.5799°
argument of perigee: 12.9961°
revolutions per day: 14.74176513
mean anomaly at epoch: 347.1561°
orbit number at epoch: 6201

The dashed part of the orbit path shows where the satellite is in the earth's shadow,  

DLR